Location: Roc des P�zouls
(43.9667°N, 3.5500°E)
Time: 02:53:07
(UTC+00:00)

Cosmos 2278 - Pass Details

Date: 14 November 2019
Orbit: 838 x 855 km, 71.1° (Epoch: 09 December)

Event Time Altitude Azimuth Distance (km) Brightness Sun altitude
Exits shadow 04:41:05 38° 307° (NW) 1,294 4.2 -21.2°
Maximum altitude 04:43:03 56° 251° (WSW) 1,015 3.7 -20.8°
Drops below altitude 10° 04:48:35 10° 174° (S) 2,476 6.3 -19.9°
Sets 04:51:04 0° 170° (S) 3,406 7.1 -19.4°
